Location: *
(37.5724°S, 58.0067°E)
Time: 11:47:58
(UTC+00:00)

USA 229 DEB - Pass Details

Date: 29 November 2021
Orbit: 943 x 1269 km, 63.4° (Epoch: 14 January)

Event Time Altitude Azimuth Distance (km) Brightness Sun altitude
Exits shadow 17:04:07 20° 9° (N) 2,568 5.2 -18.3°
Maximum altitude 17:09:06 42° 67° (ENE) 1,711 4.3 -18.9°
Drops below altitude 10° 17:16:05 10° 133° (SE) 3,125 6.2 -19.8°
Sets 17:18:54 0° 140° (SE) 4,048 6.9 -20.2°
